Regional Weather Roundup
Issued by NWS Midland/Odessa, TX

Home | Current Version | Previous Version | Text Only | Print | Product List | Glossary On
Versions: 1 2 3 4 5 6 7 8 9 10 11 12 13 14 15 16 17 18 19 20 21 22 23 24 25 26 27 28 29 30 31 32 33 34 35 36 37 38 39 40 41 42 43 44 45 46 47 48 49 50
438
ASUS44 KMAF 301310
RWRMAF
MIDLAND AREA WEATHER ROUNDUP
NATIONAL WEATHER SERVICE MIDLAND TX
800 AM CDT MON MAY 30 2016

...IN SOUTHWEST TEXAS AND SOUTHEAST NEW MEXICO...

CITY           SKY/WX    TMP DP  RH WIND       PRES   REMARKS
ALPINE         MOSUNNY   65  55  70 W6        30.19R
ANDREWS        CLOUDY    57  57 100 N6        30.11R
ARTESIA        CLOUDY    61  57  88 SE6       30.11R
BIG SPRING     CLOUDY    60  57  91 SE5       30.09R
CARLSBAD       CLOUDY    62  55  77 E3        30.09R
DRYDEN           N/A     73  70  90 E8        30.02R
FORT STOCKTON  NOT AVBL
GUAD PASS      NOT AVBL
HOBBS          PTSUNNY   57  57 100 VRB5      30.12S
MARFA          CLOUDY    61  57  87 N3        30.17R
MIDLAND AIRPK  CLOUDY    63  57  82 NE3       30.09R
MIDLAND INTL   CLOUDY    62  56  80 E5        30.07R
ODESSA         CLOUDY    61  55  81 NE8       30.09R
PECOS          CLOUDY    64  56  74 NW8       30.07S
PRESIDIO       PTSUNNY   74  57  55 CALM      30.02R
SEMINOLE       CLOUDY    58  56  91 CALM      30.12R
SNYDER           N/A     59  58  97 CALM      30.08R
WINK           NOT AVBL
$$
...OTHER STATIONS IN TEXAS...

CITY           SKY/WX    TMP DP  RH WIND       PRES   REMARKS
ABILENE        MOSUNNY   64  62  93 S8        30.04R
AMARILLO       SUNNY     55  52  89 W3        30.13F
AUSTIN         TSTM      67  65  93 NW3       30.08R
BROWNSVILLE    SUNNY     80  76  87 E5        29.98R
CORPUS CHRISTI MOSUNNY   79  75  87 CALM      30.01R
DALLAS FTW     CLOUDY    70  65  84 N9        30.02R
DEL RIO        CLOUDY    77  72  84 E14       30.01R
EL PASO        MOSUNNY   72  44  36 CALM      30.05S
HOUSTON INT    CLOUDY    75  73  93 NW5       30.06R
LUBBOCK        MOSUNNY   57  54  89 N8        30.11R
SAN ANGELO     CLOUDY    66  64  93 CALM      30.06R
SAN ANTONIO    TSTM      65  63  93 NE3       30.10F
WACO           CLOUDY    76  56  49 S21G28    29.88R
WICHITA FALLS  NOT AVBL
$$
...OTHER LOCATIONS IN NEW MEXICO...

CITY           SKY/WX    TMP DP  RH WIND       PRES   REMARKS
ALAMAGORDO     MOSUNNY   66  37  34 S8        30.06S
ALBUQUERQUE    MOSUNNY   57  44  62 N9        30.13R
CANNON AFB     CLOUDY    56  56 100 W3        30.14S
CLOVIS         CLOUDY    55  50  82 W6        30.14S
HOLLOMAN AFB   SUNNY     69  37  31 S8        30.06R
ROSWELL        CLOUDY    63  52  67 SE8       30.11R
RUIDOSO          N/A     54  45  71 SW7       30.24S
SANTA FE       CLOUDY    49  43  80 NW3       30.18R
TRUTH OR CONSE MOSUNNY   63  28  26 S3        30.10R
TUCUMCARI      CLOUDY    54  52  93 S3        30.13S
$$




USA.gov is the U.S. government's official web portal to all federal, state and local government web resources and services.